TimeEST,TemperatureF,Dew PointF,Humidity,Sea Level PressureIn,VisibilityMPH,Wind Direction,Wind SpeedMPH,Gust SpeedMPH,PrecipitationIn,Events,Conditions,WindDirDegrees,DateUTC
12:58 AM,25.7,17.1,70,30.30,10.0,NW,8.1,-,N/A,,Clear,310,2013-11-28 05:58:00
1:58 AM,25.2,16.9,71,30.32,10.0,WNW,6.9,-,N/A,,Clear,300,2013-11-28 06:58:00
2:58 AM,24.1,16.9,74,30.34,10.0,NW,6.9,-,N/A,,Clear,310,2013-11-28 07:58:00
3:58 AM,23.4,16.7,76,30.34,10.0,NW,8.1,-,N/A,,Clear,310,2013-11-28 08:58:00
4:58 AM,22.6,16.5,77,30.34,10.0,NW,2.3,-,N/A,,Clear,310,2013-11-28 09:58:00
5:58 AM,20.1,16.5,86,30.37,10.0,West,5.8,-,N/A,,Clear,280,2013-11-28 10:58:00
6:58 AM,21.6,16.7,82,30.40,10.0,NW,4.6,-,N/A,,Clear,310,2013-11-28 11:58:00
7:58 AM,22.6,17.6,81,30.40,10.0,NW,4.6,-,N/A,,Clear,320,2013-11-28 12:58:00
8:58 AM,27.0,18.5,70,30.44,10.0,NNW,6.9,-,N/A,,Clear,330,2013-11-28 13:58:00
9:58 AM,30.9,19.6,63,30.45,10.0,NW,4.6,-,N/A,,Clear,310,2013-11-28 14:58:00
10:58 AM,35.2,18.9,51,30.45,10.0,WNW,2.3,-,N/A,,Clear,290,2013-11-28 15:58:00
11:58 AM,39.4,18.9,44,30.43,10.0,Variable,3.5,-,N/A,,Clear,0,2013-11-28 16:58:00
12:58 PM,42.3,17.6,37,30.41,10.0,NW,2.3,-,N/A,,Clear,310,2013-11-28 17:58:00
1:58 PM,45.9,18.7,34,30.39,10.0,Variable,2.3,-,N/A,,Clear,0,2013-11-28 18:58:00
2:58 PM,48.0,16.9,29,30.40,10.0,Variable,3.5,-,N/A,,Clear,0,2013-11-28 19:58:00
3:58 PM,46.9,18.1,32,30.41,10.0,NW,4.6,-,N/A,,Clear,310,2013-11-28 20:58:00
4:58 PM,45.3,18.5,34,30.41,10.0,West,6.9,-,N/A,,Clear,280,2013-11-28 21:58:00
5:58 PM,41.2,21.4,45,30.43,10.0,West,3.5,-,N/A,,Clear,280,2013-11-28 22:58:00
6:58 PM,35.4,25.3,67,30.46,10.0,Calm,Calm,-,N/A,,Clear,0,2013-11-28 23:58:00
7:58 PM,33.4,24.3,69,30.46,10.0,Calm,Calm,-,N/A,,Clear,0,2013-11-29 00:58:00
8:58 PM,32.5,24.3,72,30.47,10.0,NNW,1.2,-,N/A,,Clear,340,2013-11-29 01:58:00
9:58 PM,30.4,24.8,80,30.49,10.0,Calm,Calm,-,N/A,,Clear,0,2013-11-29 02:58:00
10:58 PM,30.2,23.9,77,30.48,10.0,SSW,2.3,-,N/A,,Clear,210,2013-11-29 03:58:00
11:58 PM,29.1,24.1,81,30.50,10.0,Calm,Calm,-,N/A,,Clear,0,2013-11-29 04:58:00